sat.trackr.live / text

‹ back to catalog

STARLINK-37897

NORAD 69531 · 2026-133Z

PAYLOAD ACTIVE UNKNOWN

§ Identity

Operator
Country
US
Launch date
2026-06-12
Launch site
AFETR
Launch vehicle
Mass (kg)
RCS (m²)

Purposes: comms

External: N2YO · Heavens-Above · Gunter

§ Orbital elements

Epoch: 2026-09-20T04:57:02.236896Z

Period
93.85 min
Inclination
53.1537°
Eccentricity
0.0001375
Mean motion
15.34399915 rev/d
Perigee alt
461.8 km
Apogee alt
463.6 km
Semi-major
6,840.8 km
B*
2.8017e-4
RAAN
230.7322°
Arg perigee
94.7959°
Mean anomaly
265.3201°
Rev number
1,672

§ Raw data

STARLINK-378971 69531U 26133Z   26263.20627589  .00009101  00000+0  28017-3 0  99982 69531  53.1537 230.7322 0001375  94.7959 265.3201 15.34399915 16722

JSON: /api/v1/satellites/69531 · /tle

For live sub-satellite position, see the globe view (requires WebGL).

§ Visibility from observer

Set your observer location to see the next 7 days of passes ≥ 10°. The values pass through the URL so the page stays shareable.

No JS? Fill the form by hand. The geolocation button needs JavaScript.